Regional Weather Roundup
Issued by NWS Wakefield, VA

Home | Current Version | Previous Version | Text Only | Print | Product List | Glossary On
Versions: 1 2 3 4 5 6 7 8 9 10 11 12 13 14 15 16 17 18 19 20 21 22 23 24 25 26 27 28 29 30 31 32 33 34 35 36 37 38 39 40 41 42 43 44 45 46 47 48 49 50
000
ASUS41 KAKQ 021314
RWRAKQ

REGIONAL WEATHER ROUNDUP
NATIONAL WEATHER SERVICE WAKEFIELD VA
900 AM EDT WED SEP 02 2015

Note: "fair" indicates few or no clouds below 12,000 feet with no
significant weather and/or obstructions to visibility. * = Denotes
station may not report precipitation (e.g., rain,snow,etc.),
thunder or fog.

VAZ042-051-052>054-056-021400-
NORTHERN VIRGINIA

CITY           SKY/WX    TMP DP  RH WIND       PRES   REMARKS
WASH NATIONAL  CLOUDY    79  72  79 NE3       30.06S
DULLES         PTSUNNY   77  67  71 NW3       30.07S
FORT BELVOIR   PTSUNNY   79  70  74 NW3       30.05S
QUANTICO       PTSUNNY   78  69  73 NW3       30.06S
FREDERICKSBRG* MOSUNNY   79  73  82 CALM      30.05S
STAFFORD*      MOSUNNY   77  69  77 CALM      30.10S
WARRENTON      MOSUNNY   78  72  82 CALM      30.06F
CULPEPER*      CLOUDY    75  69  84 CALM      30.07F
MANASSAS*      SUNNY     75  72  88 CALM      30.06
LEESBURG*      CLOUDY    77  70  78 NW8       30.08S
WINCHESTER     PTSUNNY   77  68  73 CALM      30.09S
FRONT ROYAL*   FAIR      73  68  83 S6        30.09S
LURAY*         FAIR      72  70  94 SW3       30.11F
$$

VAZ048-049-060>072-079>083-021400-
CENTRAL AND SOUTH CENTRAL VIRGINIA

CITY           SKY/WX    TMP DP  RH WIND       PRES   REMARKS
RICHMOND       CLOUDY    82  69  64 W6        30.05F
CHESTERFIELD*  FAIR      81  63  54 W6        30.07F
PETERSBURG*    PTSUNNY   80  77  91 CALM      30.06F
HANOVER        MOSUNNY   80  70  71 W3        30.07F
TAPPAHANNOCK*  MOSUNNY   79  69  71 CALM      30.06S
QUINTON*       FAIR      76  72  85 CALM      30.05F
CHARLOTTSVILLE CLOUDY    76  69  79 CALM      30.08F
GORDONSVILLE*  FAIR      76  71  86 CALM      30.07S
ORANGE*        CLOUDY    77  70  78 CALM      30.08F
LOUISA*        PTSUNNY   79  70  73 CALM      30.06F
BUMPASS*       FAIR      78  71  79 N5        30.06F
FARMVILLE*     PTSUNNY   77  73  87 CALM      30.06S
CREWE*         FAIR     N/A N/A N/A CALM      30.07S
FORT PICKETT*  FAIR      78  71  79 CALM      30.07F
CHASE CITY*    FAIR      78  74  85 CALM      30.08F
CLARKSVILLE*   FAIR      73  70  88 CALM      30.08S
SOUTH HILL*    SUNNY     75  72  88 CALM      30.13S
LAWRENCEVILLE* FAIR      75  72  88 CALM      30.07S
EMPORIA*       MOSUNNY   77  72  83 CALM      30.07F
$$

VAZ088>098-021400-
SOUTHEAST VIRGINIA

CITY           SKY/WX    TMP DP  RH WIND       PRES   REMARKS
NORFOLK        MOSUNNY   79  71  76 W5        30.05S
VIRGINIA BEACH PTSUNNY   82  72  71 W5        30.04F
NORFOLK NAVAL  PTSUNNY   80  72  76 W5        30.06F
WEST POINT*    SUNNY     80  71  74 W3        30.07S
SALUDA*        FAIR      78  71  79 W5        30.04F
NEWPORT NEWS   MOSUNNY   80  71  74 W6        30.05F
LANGLEY AFB    MOSUNNY   79  73  80 W7        30.04F
FORT EUSTIS    SUNNY     77  77 100 NW5       30.04S
WILLIAMSBURG*  SUNNY     79  75  89 W3        30.06F
HR EXEC AP*      N/A     75  72  88 W3        30.07F
FRANKLIN*      SUNNY     77  72  84 W3        30.06F
WAKEFIELD      SUNNY     78  71  79 CALM      30.06F
$$

VAZ020-022-025-037-045-021400-
WEST CENTRAL AND SOUTHWEST VIRGINIA

CITY           SKY/WX    TMP DP  RH WIND       PRES   REMARKS
STAUNTON*      PTSUNNY   73  69  89 CALM      30.15F FOG
WAYNESBORO*    PTSUNNY   71  69  90 CALM      30.14F
HOT SPRINGS VA SUNNY     68  67  96 NW6       30.26S
LYNCHBURG      MOSUNNY   75  68  78 S3        30.12S
DANVILLE       SUNNY     75  69  81 SW3       30.10S
SOUTH BOSTON*  FAIR      76  70  80 CALM      30.08F
MARTINSVILLE   SUNNY     76  70  82 CALM      30.15S
ROANOKE        MOSUNNY   74  67  78 W6        30.15F
BLACKSBURG     SUNNY     69  67  94 CALM      30.23S
DUBLIN*        CLOUDY    71  68  90 CALM      30.22S
MARION*        SUNNY     70  65  84 CALM      30.26R
HILLSVILLE*    SUNNY     65  64  95 SW3       30.23S
RICHLANDS*     FAIR      68  38  33 CALM      30.24S
WISE*          SUNNY     72  68  88 CALM      30.25S
ABINGDON*      SUNNY     72  65  79 E6        30.21S
$$

MDZ021>025-VAZ099-100-021400-
SOUTHERN MARYLAND AND THE DELMARVA PENINSULA

CITY           SKY/WX    TMP DP  RH WIND       PRES   REMARKS
PATUXENT RIVER CLOUDY    80  71  74 W5        30.04S
BAY BRIDGE APT   N/A     79  72  78 CALM      30.04S
LEONARDTOWN    NOT AVBL
DOVER          FOG       73  73 100 N3        30.02S VSB 1/2
GEORGETOWN     PTSUNNY   76  71  85 CALM      30.04S
EASTON         PTSUNNY   79  79 100 CALM      30.08R
CAMBRIDGE      PTSUNNY   77  72  83 CALM      30.03S
SALISBURY      PTSUNNY   76  73  91 CALM      30.04S
OCEAN CITY     PTSUNNY   79  72  79 CALM      30.04S
WALLOPS ISLAND MOSUNNY   81  76  84 W7        30.04S
ACCOMACK*      PTSUNNY   77  77 100 W6        30.04S
$$

NCZ012>017-030>032-021400-
NORTH CENTRAL AND EASTERN NORTH CAROLINA

CITY           SKY/WX    TMP DP  RH WIND       PRES   REMARKS
ROANOKE RAPIDS FAIR      73  70  88 CALM      30.07S
RALEIGH        MOSUNNY   77  71  82 CALM      30.09S
ELIZABETH CITY SUNNY     77  73  87 W5        30.06S
AHOSKIE*       SUNNY     75  71  88 CALM      30.06F
EDENTON*       SUNNY     76  71  83 CALM      30.06F
CURRITUCK*     SUNNY     76  71  86 CALM      30.07S
KILL DEVIL HLS SUNNY     80  76  89 CALM      30.05S
MANTEO         SUNNY     78  74  88 N5        30.06S
CAPE HATTERAS  SUNNY     80  73  79 MISG      30.06S
TARBORO*       FAIR      76  72  89 CALM      30.07F
GOLDSBORO      SUNNY     76  73  91 SW2       30.07S
WASHINGTON     SUNNY     76  72  87 CALM      30.07S
GREENVILLE     SUNNY     75  75 100 CALM      30.08S
NEW BERN       SUNNY     79  73  82 CALM      30.08S
WILMINGTON     SUNNY     79  74  84 W6        30.08S
$$

VAZ048-021400-
ELSEWHERE

CITY           SKY/WX    TMP DP  RH WIND       PRES   REMARKS
HARRISBURG PA  PTSUNNY   74  66  76 NW6       30.05F
BALTIMORE      CLOUDY    77  67  71 CALM      30.05S
ANNAPOLIS      PTSUNNY   79  75  87 CALM      30.04S FOG
ANDREWS AFB    PTSUNNY   79  70  74 N6        30.05S
PHILADELPHIA   PTSUNNY   77  71  82 SE5       30.04S HAZE
HENDERSON NC   SUNNY     75  68  77 CALM      30.09S
GREENSBORO     PTSUNNY   79  67  66 CALM      30.11S
ROCKY MOUNT    SUNNY     78  72  81 CALM      30.07F
$$

VAZ100-021400-
MARINE

STATION/POSITION TIME  TEMP    WIND        PRES    WAVE   SWELL
                       AIR SEA DIR/SP/G            HT/PER HT/PER
                 (UTC) (F)     (DEG/KT/KT) (MB)    (FT/S) (FT/S)
BRANDYWINE LGT   1200   75 76  330/  3/  5 1017.3R
CAPE MAY NJ      1200   75 80  340/  1/  2 1016.7R
LEWES DE         1200   74 76  240/  1/  1 1016.9R
15NM E FENWICK I 1250   78 78  240/  6/  6 1017.0F   2/14   2/14
OCEAN-CITY-INLET 1200   76 78  270/  1/  1 1016.3R
THOMAS POINT MD  1300   78 79  340/  2     1017.8
GOOSES REEF MD   1300   79 80  350/  8/  8 1018.3R
COVE POINT MD    1200   76     320/  5/  6 1017.7R
SOLOMONS ISLAND  1200      81                N/A
BISHOPS HEAD MD  1200   79 80  280/  4/  5 1016.2R
PINEY POINT MD   1205          300/  7/  9   N/A
POTOMAC MD       1300   79 80  300/ 10/ 12 1016.0S   1
CAMBRIDGE MD     1200   77 81   CALM  /  1 1016.2R
LEWISETTA VA     1200   77 81  300/  3/  5 1016.9R
RAPPAHANNOCK LGT 1200          250/  7/  8 1017.9R
STINGRAY PT      1300   79 80  270/  6/  8 1017.7F   0
YORK RVR RNG VA  1200   77     260/  6/  7 1017.0R
YORKTOWN VA      1200   76 80  240/  4/  6 1017.3R
JAMESTOWN VA     1300   77 81  290/  4/  6   N/A
DOMINION TERM VA 1200   76     270/  6/  7 1017.7R
KIPTOPEKE VA     1200      79  270/  4/  5   N/A
CHES BAY BRIDGE  1200   76 79  220/  6/  7 1017.1R
CAPE HENRY VA    1200   76     240/  5/  7   N/A
CHESAPEAKE LGHT  1200   80     280/  6/  6 1018.4R
WILLOUBY STN VA  1200   77     250/ 10/ 10 1018.5R
CAPE HENRY BUOY  1228      79                N/A     1/ 7
1ST LANDING BUOY 1300      79              1017.1F   1/ 5
CAPE CHARLES BUO 1226      78                N/A     1/ 9   2/ 9
OFFSHORE WE BUOY 1211      79                N/A     2/ 7   2/ 7
64NM E OF VA BCH 1250   78 79  320/  4/  4 1017.2F   2/10   2/10
DUCK PIER NC     1200   76 78  300/  5/  5 1017.1R
44100 DUCK FRF   1224      79                N/A     1/13
44056 DUCK FRF   1211      79                N/A     1/ 9
OREGON INLET NC  1200   77 81  300/  4/  5 1017.9R
HATTERAS NC      1200   79 81  320/  8/  9 1017.6R
DIAMOND SHLS NC  1150   80 83  330/  8/ 10 1017.9    2/10   2/10
CAPE LOOKOUT NC  1300   78     320/  6/  7 1017.8S
$$


USA.gov is the U.S. government's official web portal to all federal, state and local government web resources and services.